Location: Castillon
(43.0896°N, 0.2156°E)
Time: 20:11:03
(UTC+00:00)

USA 215 - Pass Details

Date: 16 June 2021
Orbit: 1100 x 1107 km, 123.0° (Epoch: 22 June)

Event Time Altitude Azimuth Distance (km) Brightness Sun altitude
Rises 21:37:41 0° 52° (NE) 3,922 6.2 -15.9°
Reaches altitude 10° 21:40:17 10° 58° (ENE) 2,961 5.5 -16.2°
Maximum altitude 21:46:34 48° 131° (SE) 1,400 3.4 -16.8°
Drops below altitude 10° 21:52:49 10° 205° (SSW) 2,950 5.2 -17.4°
Sets 21:55:24 0° 211° (SSW) 3,905 5.9 -17.6°
